This is the latest recevied weather packets stored in our database for station/object DB0WUN-13. If no packets are shown the sender has not sent any weather packets the latest 1 day(s).
| Time | Temp. | Humidity | Pressure | Rain* | Wind** | Luminosity | Snow |
|---|---|---|---|---|---|---|---|
| 1777982975 | 19.44° C | 59% | 1008.1 hPa | 0 mm | 1.34 m/s, 319° | 149 W/m² | - |
| 1777982918 | 19.44° C | 59% | 1008.1 hPa | 0 mm | 1.34 m/s, 338° | 149 W/m² | - |
| 1777982859 | 20° C | 59% | 1008.1 hPa | 0 mm | 1.34 m/s, 333° | 163 W/m² | - |
| 1777982805 | 20° C | 60% | 1008.2 hPa | 0 mm | 1.34 m/s, 317° | 151 W/m² | - |
| 1777982733 | 20° C | 59% | 1008.2 hPa | 0 mm | 1.34 m/s, 327° | 155 W/m² | - |
| 1777982673 | 20° C | 59% | 1008.1 hPa | 0 mm | 0.89 m/s, 320° | 158 W/m² | - |
| 1777982613 | 20° C | 60% | 1008.1 hPa | 0 mm | 1.34 m/s, 299° | 162 W/m² | - |
| 1777982558 | 20° C | 59% | 1008.1 hPa | 0 mm | 1.34 m/s, 315° | 176 W/m² | - |
| 1777982496 | 20° C | 59% | 1008.1 hPa | 0 mm | 1.34 m/s, 329° | 174 W/m² | - |
| 1777982437 | 20° C | 59% | 1008.1 hPa | 0 mm | 1.34 m/s, 340° | 174 W/m² | - |
| 1777982371 | 20° C | 59% | 1008.2 hPa | 0 mm | 1.79 m/s, 359° | 179 W/m² | - |
| 1777982316 | 20° C | 58% | 1008.1 hPa | 0 mm | 1.79 m/s, 333° | 186 W/m² | - |
| 1777982255 | 20° C | 58% | 1008.2 hPa | 0 mm | 2.24 m/s, 349° | 197 W/m² | - |
| 1777982192 | 20° C | 58% | 1008.1 hPa | 0 mm | 2.24 m/s, 329° | 207 W/m² | - |
| 1777982136 | 20° C | 58% | 1008.1 hPa | 0 mm | 2.68 m/s, 326° | 220 W/m² | - |
| 1777982091 | 20° C | 58% | 1008.2 hPa | 0 mm | 2.68 m/s, 359° | 221 W/m² | - |
| 1777982052 | 20° C | 57% | 1008.1 hPa | 0 mm | 3.13 m/s, 327° | 218 W/m² | - |
| 1777982004 | 20° C | 57% | 1008.1 hPa | 0 mm | 3.13 m/s, 326° | 218 W/m² | - |
| 1777981964 | 20° C | 57% | 1008.1 hPa | 0 mm | 3.13 m/s, 330° | 225 W/m² | - |
| 1777981918 | 20.56° C | 58% | 1008.2 hPa | 0 mm | 3.13 m/s, 314° | 227 W/m² | - |
| 1777981876 | 20.56° C | 57% | 1008.1 hPa | 0 mm | 3.13 m/s, 333° | 234 W/m² | - |
| 1777981832 | 20.56° C | 57% | 1008.1 hPa | 0 mm | 3.13 m/s, 327° | 248 W/m² | - |
| 1777981651 | 20.56° C | 56% | 1008.2 hPa | 0 mm | 2.68 m/s, 325° | 248 W/m² | - |
| 1777981592 | 20.56° C | 57% | 1008.1 hPa | 0 mm | 2.68 m/s, 333° | 248 W/m² | - |
| 1777981534 | 20.56° C | 57% | 1008.2 hPa | 0 mm | 2.68 m/s, 327° | 251 W/m² | - |
* Rain latest hour (hover to see other rain measurements)
** Current wind speed in m/s (hover to see current wind gust speed)